www.pogodaiklimat.ru

Погода и климат >> Архив погоды >> Пакистан >> Навабшах


ПОГОДА в Навабшахе

  • Прогноз погоды в Навабшахе
  • Монитор погоды в Навабшахе

АРХИВ ПОГОДЫ в Навабшахе

Время (UTC), дата Ветер
(напр.,м/с)
 
Видим.   Явления Облачность Т
(С)
Тd
(С)
f
(%)
Тe
(С)
Тes
(С)
Комфортность P
(гПа)
Po
(гПа)
Тmin
(С)
Tmax
(С)
R
(мм)
R24
(мм)
S
(см)
21 8.09 Ю 1 4000 м мгла 6/4 300 м
[Sc Ac trans]
+30.5 +24.9 72 +44 +44 опасность
перегрева
1000.2 1000.0
00 9.09 ЮВ 2 4000 м мгла 4/0
[Ac trans]
+28.5 +23.5 74 +39 +39 очень
душно
999.7 996.6
03 9.09 штиль 0 4000 м мгла 8/3 1050 м
[Sc Ac trans]
+30.5 +24.1 69 +42 +44 опасность
перегрева
1001.0 997.8 +27.5
06 9.09 ЮВ 1 4000 м 3/0
[Ac trans]
+38.0 +24.8 47 +51 +66 опасность
перегрева
1001.6 998.5
09 9.09 ЮВ 2 4000 м 3/0
[Ac trans]
+40.0 +24.8 42 +52 +66 опасность
перегрева
1000.3 1000.0
12 9.09 ЮВ 2 4000 м 6/3 1050 м
[Sc Ac trans]
+40.0 +24.8 42 +52 +54 опасность
перегрева
999.4 996.3 +41.5
15 9.09 Ю 2 4000 м мгла 5/3 300 м
[Sc Ac trans]
+34.0 +25.7 62 +49 +49 опасность
перегрева
999.7 1000.0
18 9.09 Ю 2 4000 м мгла 3/0
[Ac trans]
+32.0 +25.0 67 +46 +46 опасность
перегрева
1000.7 997.5
21 9.09 Ю 2 4000 м мгла 3/0
[Ac trans]
+32.0 +25.0 67 +46 +46 опасность
перегрева
1000.7 997.5
00 10.09 ЮВ 1 4000 м мгла ясно +30.0 +25.1 75 +43 +43 опасность
перегрева
998.6 1000.0
03 10.09 Ю 2 4000 м мгла 3/0
[Ci fib]
+31.0 +25.4 72 +45 +48 опасность
перегрева
999.9 996.7 +29.1
06 10.09 Ю 4 4000 м 4/0
[Ci fib]
+37.0 +26.0 53 +52 +62 опасность
перегрева
1000.6 997.5
09 10.09 ЮВ 4 4000 м 4/0
[Ac trans]
+40.0 +25.6 44 +54 +62 опасность
перегрева
999.2 995.1
12 10.09 ЮВ 2 4000 м 4/0
[Ac trans]
+39.5 +25.8 46 +54 +56 опасность
перегрева
997.9 994.8 +41.1
15 10.09 ЮВ 2 4000 м 4/0
[Ac trans]
+37.0 +24.9 50 +50 +50 опасность
перегрева
998.7 1000.0
18 10.09 ЮВ 2 4000 м мгла 4/0
[Ac trans]
+33.0 +23.8 59 +45 +45 опасность
перегрева
999.7 996.5
21 10.09 ЮВ 2 4000 м мгла 3/0
[Ac trans]
+31.0 +23.9 66 +43 +43 опасность
перегрева
998.9 1000.0
00 11.09 ЮВ 3 4000 м мгла 3/0
[Ac trans]
+29.0 +24.8 78 +41 +41 опасность
перегрева
998.1 994.9
03 11.09 ЮВ 1 4000 м мгла 3/0
[Ac trans]
+30.0 +24.3 72 +42 +45 опасность
перегрева
999.6 996.4 +28.5
06 11.09 Ю 3 4000 м 3/0
[Ac trans]
+35.5 +24.3 52 +47 +59 опасность
перегрева
1000.7 998.0
09 11.09 Ю 3 4000 м 3/0
[Ci fib]
+40.0 +25.6 44 +54 +66 опасность
перегрева
999.5 1000.0
12 11.09 Ю 4 4000 м ясно +39.5 +26.6 48 +55 +57 опасность
перегрева
998.6 995.5 +41.5
15 11.09 Ю 2 4000 м мгла ясно +34.5 +26.3 62 +51 +51 опасность
перегрева
999.9 1000.0
18 11.09 Ю 2 4000 м мгла ясно +32.0 +25.8 70 +47 +47 опасность
перегрева
1001.5 1000.0
21 11.09 ЮВ 2 4000 м мгла ясно +30.0 +25.1 75 +43 +43 опасность
перегрева
1000.4 1000.0
00 12.09 ЮВ 4 4000 м мгла ясно +29.5 +24.5 75 +42 +42 опасность
перегрева
999.4 996.2
03 12.09 Ю 3 4000 м мгла 3/0
[Ci fib]
+30.5 +24.9 72 +44 +46 опасность
перегрева
1001.1 997.7 +28.1
06 12.09 ЮВ 3 4000 м ясно +35.0 +24.5 55 +48 +62 опасность
перегрева
1003.2 1000.0
09 12.09 ЮВ 3 4000 м 3/0
[Ci fib]
+39.5 +25.0 44 +52 +66 опасность
перегрева
1001.6 1000.0
12 12.09 ЮВ 2 4000 м 4/0
[Ac trans]
+39.0 +25.2 46 +52 +54 опасность
перегрева
999.5 996.4 +41.1
15 12.09 ЮВ 2 4000 м мгла 3/0
[Ac trans]
+34.0 +25.7 62 +49 +49 опасность
перегрева
1000.8 1000.0
18 12.09 ЮВ 1 4000 м мгла ясно +31.0 +24.6 69 +44 +44 опасность
перегрева
1002.8 999.6
21 12.09 ЮВ 2 4000 м мгла ясно +29.0 +24.0 74 +40 +40 очень
душно
1001.5 1000.0
00 13.09 Ю 2 4000 м мгла ясно +27.0 +22.6 77 +36 +36 очень
душно
1000.1 996.9
03 13.09 ЮВ 4 4000 м мгла 5/1 900 м
[Sc Ac trans]
+28.5 +22.7 71 +38 +39 очень
душно
1001.8 998.6 +26.5
06 13.09 Ю 2 4000 м 6/3 1050 м
[Sc Ac trans]
+34.5 +23.9 54 +46 +54 опасность
перегрева
1003.5 1000.2
09 13.09 Ю 2 4000 м 6/3 1050 м
[Sc Ac trans]
+37.0 +22.8 44 +46 +54 опасность
перегрева
1000.9 1000.0
12 13.09 ЮВ 2 4000 м 5/1 1050 м
[Sc Ac trans]
+38.0 +24.0 45 +49 +51 опасность
перегрева
999.8 996.7 +39.1
15 13.09 ЮВ 2 4000 м мгла 4/0
[Ac trans]
+34.0 +24.1 56 +46 +46 опасность
перегрева
1001.5 1000.0
18 13.09 Ю 2 4000 м мгла 4/0
[Ac trans]
+30.5 +23.3 65 +41 +41 опасность
перегрева
1003.1 999.9
21 13.09 Ю 2 4000 м мгла ясно +29.0 +23.2 71 +39 +39 очень
душно
1002.3 1000.0
00 14.09 ЮВ 2 4000 м мгла ясно +27.5 +23.1 77 +37 +37 очень
душно
1001.4 998.2
03 14.09 В 1 4000 м мгла ясно +28.0 +22.9 74 +37 +41 очень
душно
1002.6 999.4 +26.5
06 14.09 ЮВ 1 4000 м ясно +34.0 +24.1 56 +46 +64 опасность
перегрева
1004.4 1001.1
09 14.09 СВ 1 4000 м 3/0
[Ci fib]
+37.5 +23.4 45 +48 +65 опасность
перегрева
1002.3 1000.0
12 14.09 ЮВ 1 4000 м 3/0
[Ci fib]
+38.0 +23.1 43 +48 +51 опасность
перегрева
1001.7 998.4 +38.5
15 14.09 ЮВ 2 4000 м мгла ясно +34.0 +24.1 56 +46 +46 опасность
перегрева
1003.1 1000.0
18 14.09 ЮВ 2 4000 м мгла ясно +31.0 +24.6 69 +44 +44 опасность
перегрева
1004.2 1000.9
21 14.09 ЮВ 2 4000 м мгла ясно +29.0 +24.0 74 +40 +40 очень
душно
1003.4 1000.0
00 15.09 ЮВ 2 4000 м мгла ясно +27.5 +23.1 77 +37 +37 очень
душно
1002.6 999.3
03 15.09 штиль 0 4000 м мгла 3/3 1050 м
[Sc]
+29.0 +24.0 74 +40 +43 очень
душно
1002.9 999.6 +27.1
06 15.09 ЮВ 1 4000 м 5/3 1050 м
[Sc Ac trans]
+36.0 +24.9 53 +49 +60 опасность
перегрева
1005.0 1001.8
09 15.09 ЮВ 2 4000 м 3/0
[Ac trans]
+38.5 +23.8 43 +49 +62 опасность
перегрева
1003.5 999.3
12 15.09 ЮВ 1 4000 м 3/0
[Ac trans]
+39.0 +24.4 44 +51 +53 опасность
перегрева
1002.9 999.6 +40.5
15 15.09 Ю 1 4000 м мгла 3/0
[Ac trans]
+34.0 +24.1 56 +46 +46 опасность
перегрева
1003.6 1000.0
18 15.09 Ю 2 4000 м мгла 3/0
[Ac trans]
+31.0 +23.9 66 +43 +43 опасность
перегрева
1004.3 1001.0

 

Местоположение метеостанции Навабшах (Пакистан): широта 26.25 долгота 68.37 высота над уровнем моря 38 м.

В архиве по умолчанию представлена погода в Навабшахе за последнюю неделю. Архивные данные за месяц целиком и за предыдущие месяцы, начиная с января 2011 года, Вы можете получить, выбрав интересующий диапазон дат из раскрывающегося списка и нажав кнопку "Ввод!".


*Определитесь, кто Вы:
робот инопланетянин человек

Внимание! Время в таблицах - всемирное. Для получения местного времени необходимо прибавить поправку, которая равна 5 ч.

Смотрите также архив погоды в соседних городах и на ближайших метеорологических станциях:

Погода в Пад Идан (Пакистан) (71 км)
Погода в Хайдарабате (Пакистан) (97 км)
Погода в Мир Пур Кхас (Пакистан) (100 км)
Погода в Мохенджо-Даро (Пакистан) (121 км)
Погода в Сакранде (Пакистан) (125 км)
Погода в Ларкане (Пакистан) (146 км)
Погода в Чоре (Пакистан) (163 км)
Погода в Рохри (Пакистан) (166 км)
Погода в Суккуре (Пакистан) (167 км)
Погода в Даду (Пакистан) (170 км)

Пояснения к столбцам:

Ветер - указаны скорость ветра в м/с - средняя за 10 мин, порывы в срок и между сроками (в фигурных скобках) и направление, откуда дует ветер: С - северный, СВ - северо-восточный, В - восточный, ЮВ - юго-восточный, Ю - южный, ЮЗ - юго-западный, З - западный, СЗ - северо-западный.
Видимость - горизонтальная дальность видимости в метрах или километрах. При видимости от 1 до 10 км при отсутствии осадков обычно наблюдается дымка, при ухудшении видимости до 1 км и менее - туман. В сухую погоду видимость может ухудшаться дымом, пылью или мглою.
Явления - указаны атмосферные явления, наблюдавшиеся в срок или в последний час перед сроком; фигурными скобками обозначены явления, наблюдавшиеся между сроками (за 1-3 часа до срока); квадратными скобками обозначены град или гололедные отложения с указанием их диаметра в мм.
Облачность - указаны через наклонную черту общая и нижняя облачность в баллах и высота нижней границы облаков в метрах; квадратными скобками обозначены формы облаков: Ci - перистые, Cs - перисто-слоистые, Cc - перисто-кучевые, Ac - высококучевые, As - высокослоистые, Sc - слоисто-кучевые, Ns - слоисто-дождевые, Cu - кучевые, Cb - кучево-дождевые. Подробнее классификацию облаков см. в Атласе облаков (PDF).
T - Температура воздуха - температура, измеренная на высоте 2 м над землей.
Td - Температура точки росы - температура, при понижении до которой содержащийся в воздухе водяной пар достигнет насыщения.
f - Относительная влажность воздуха - влажноcть воздуха, измеренная на высоте 2 м над землей.
Te - Эффективная температура - температура, которую ощущает одетый по сезону человек в тени. Характеристика душности погоды. При расчете учитывается влияние влажности воздуха и скорости ветра на теплоощущения человека.
Tes - Эффективная температура на солнце - температура, которую ощущает человек, с поправкой на солнечный нагрев. Характеристика знойности погоды. Зависит от высоты солнца над горизонтом, облачности и скорости ветра. Ночью, в пасмурную погоду, а также при ветре 12 м/с и более поправка равна нулю.
P - Атмосферное давление - приведенное к уровню моря атмосферное давление.
Po - Атмосферное давление - измеренное на уровне метеостанции атмосферное давление.
Tmin - Минимальная температура - минимум температуры воздуха на высоте 2 м над землей.
Tmax - Максимальная температура - максимум температуры воздуха на высоте 2 м над землей.
R - Количество осадков - Количество выпавших осадков за период времени, мм. При наведении курсора мыши на число - период времени, за который выпало указанное количество осадков.
R24 - Количество осадков - Количество выпавших осадков за 24 часа, мм.
S - Снежный покров - Высота снежного покрова, см. При наведении курсора мыши на число - состояние снежного покрова и степень покрытия местности в баллах.